Location: Deuil
(48.9767°N, 2.3272°E)
Time: 12:00:49
(UTC+00:00)

Cosmos 2228 - Pass Details

Date: 03 June 2022
Orbit: 586 x 617 km, 82.5° (Epoch: 01 July)

Event Time Altitude Azimuth Distance (km) Brightness Sun altitude
Rises 00:16:28 0° 1° (N) 2,883 8.2 -18.5°
Reaches altitude 10° 00:19:08 10° 16° (NNE) 1,968 6.9 -18.4°
Maximum altitude 00:22:32 22° 68° (ENE) 1,341 5.1 -18.3°
Drops below altitude 10° 00:25:53 10° 119° (ESE) 1,941 5.4 -18.3°
Enters shadow 00:26:05 - 121° (ESE) 2,005 5.5 -18.3°
